Wind_Speed
13 13 13 12 11 10 8 8 9 11 13 14 11 12 11 13 11 12 11 10 9 9 8 8 8 8 8 7 7 9 10 12 13 13 13 13 14 13 12 14 15 15 15
10 10 11 9 10 11 11 11 8 7 10 11 9 8 9 10 10 9 9 8 8 7 7 6 7 7 8 8 10 12 13 14 14 15 18 18 17 17 17 16 14 12 13
9 6 6 8 9 7 8 10 9 10 13 11 10 10 10 10 8 8 7 5 5 6 7 8 9 10 11 12 12 14 15 16 16 18 19 19 19 18 17 15 13 12 12
5 5 7 8 8 8 8 8 7 8 11 12 8 8 8 9 8 7 6 6 6 7 9 12 12 12 12 13 15 17 18 19 19 19 19 18 17 16 15 15 15 16 16
5 7 7 5 8 7 11 10 9 13 12 8 7 6 7 9 10 10 10 8 9 11 13 13 14 13 14 15 17 19 19 19 19 18 16 16 16 16 16 16 17 18 18
4 7 7 8 8 10 8 11 11 10 12 8 10 9 8 10 11 14 14 14 16 16 14 13 13 15 17 19 20 20 20 19 18 16 16 15 15 16 17 18 19 19 19
5 4 7 9 9 6 8 14 14 9 10 9 12 12 13 12 13 14 15 14 14 14 15 15 16 18 20 21 21 20 19 18 16 15 15 16 17 18 18 19 19 19 20
5 4 5 6 4 5 6 9 12 12 11 12 12 10 9 11 13 13 13 13 13 14 16 18 19 22 22 21 19 18 17 16 15 14 15 16 17 17 18 18 18 18 19
6 5 4 4 6 7 9 6 12 15 13 11 9 9 12 13 13 12 11 12 14 16 18 21 21 22 21 19 17 16 14 14 13 13 15 16 17 17 17 16 17 17 18
7 6 5 5 5 7 9 10 8 11 13 11 7 10 11 13 13 12 12 14 16 20 20 21 21 20 18 16 14 13 12 11 13 15 15 16 17 18 18 18 18 19 20
9 9 7 4 2 3 5 13 8 8 7 10 12 11 12 13 13 14 17 19 21 20 19 19 19 17 15 12 10 9 9 12 14 13 15 17 18 18 16 17 18 20 20
9 9 8 7 4 2 2 5 9 8 9 11 15 14 14 13 15 17 18 20 22 22 20 18 15 13 10 8 7 7 9 11 11 11 13 16 17 16 15 18 18 19 21
10 9 9 7 6 4 2 2 6 7 7 11 17 15 16 15 16 17 18 19 18 18 18 16 13 10 6 4 4 6 9 9 8 10 13 16 17 17 18 19 18 18 20
11 10 11 10 10 8 6 4 4 7 8 11 17 17 17 18 17 17 18 18 17 16 14 13 10 7 4 1 3 6 8 9 9 11 13 17 20 21 22 22 20 18 18
16 14 12 12 11 10 9 8 6 4 7 9 16 16 17 17 17 18 18 17 16 14 13 12 10 7 5 4 5 7 8 11 13 13 15 18 21 22 24 24 21 17 17
19 18 16 15 14 12 10 9 8 7 7 8 12 16 15 14 17 19 19 18 16 14 11 11 10 8 5 6 8 8 11 13 14 14 17 20 25 27 27 23 18 15 17
18 16 17 17 16 15 14 12 11 11 10 9 10 13 14 14 18 21 20 17 15 14 13 11 10 8 7 7 10 13 14 14 14 16 20 23 26 28 25 21 16 15 19
19 16 16 17 18 16 16 15 14 13 12 10 10 11 12 14 16 19 19 17 15 15 14 13 11 10 9 11 13 13 13 15 14 17 21 25 27 27 22 20 17 16 19
23 21 19 19 18 17 15 15 15 15 14 13 13 12 13 16 18 19 19 18 17 17 15 15 14 12 12 15 16 17 16 13 14 19 22 26 28 26 21 21 15 15 19
27 27 25 23 22 20 18 16 17 17 16 17 17 16 16 17 19 20 21 20 20 19 19 18 17 16 16 17 19 19 14 15 12 19 21 26 25 23 22 17 14 15 19
31 30 29 28 26 24 22 21 20 19 19 19 20 20 20 20 20 22 23 23 24 23 23 22 20 19 17 19 22 20 18 14 12 21 21 26 22 23 22 16 15 16 20
36 35 34 32 31 29 26 25 24 24 23 22 22 22 23 24 24 25 26 25 25 25 25 25 24 23 21 21 22 21 18 17 15 20 24 23 22 21 19 17 17 18 21
37 38 37 37 36 34 31 29 28 28 27 26 25 24 25 24 25 26 27 28 29 29 29 28 28 25 25 23 23 19 17 18 18 21 26 22 20 20 18 17 17 18 22
35 37 39 38 38 38 35 33 32 32 32 30 29 28 28 27 27 26 27 28 28 27 27 27 27 23 24 21 22 19 17 19 17 21 26 24 22 19 16 17 17 19 22
32 32 35 37 37 36 36 36 36 36 36 35 33 31 31 30 29 28 30 29 29 27 26 26 25 24 23 21 20 20 18 21 21 20 23 24 23 20 18 17 18 18 22
26 28 30 33 34 33 34 35 37 39 40 38 36 35 33 32 30 31 32 32 32 28 28 27 28 28 25 21 20 22 21 21 21 23 22 23 21 21 18 17 18 19 21
Wind_Direction
120 112 128 129 130 141 121 121 103 108 90 98 83 87 94 99 94 98 96 93 85 78 73 68 65 62 61 59 58 59 59 57 58 58 57 55 52 54 56 55 49 40 34
136 119 132 136 135 144 153 141 131 113 102 96 92 80 93 87 91 96 91 87 86 79 68 62 59 59 60 63 66 69 71 72 71 70 67 65 62 61 61 55 48 39 33
136 123 157 149 141 136 150 170 144 144 123 109 99 88 98 90 97 88 78 75 77 74 63 55 60 70 73 76 78 78 83 86 83 77 73 70 65 60 56 51 44 34 28
154 152 161 154 159 145 161 168 158 126 137 120 108 84 95 97 97 85 83 74 82 87 76 81 80 78 81 84 85 90 93 88 81 77 72 69 65 59 51 47 37 29 23
139 160 176 194 175 160 142 139 116 133 137 131 126 121 115 122 102 97 96 91 94 97 93 91 90 89 87 89 94 94 90 85 80 75 70 65 58 49 40 36 29 23 17
142 165 184 199 194 177 175 144 153 152 139 122 133 141 137 127 116 112 103 100 103 104 102 101 100 99 99 99 96 92 90 86 81 73 63 54 46 37 28 23 19 13 8
139 162 170 166 187 187 170 188 176 176 137 123 130 131 124 124 121 121 117 113 109 113 113 111 108 105 102 99 96 94 89 82 73 62 50 40 31 24 17 12 7 4 359
136 172 169 174 193 205 157 159 168 181 155 127 116 86 98 118 122 127 123 121 118 117 115 115 112 108 102 99 97 92 83 72 58 43 32 26 19 13 7 2 358 355 352
157 175 165 182 219 210 189 170 173 173 169 140 122 117 110 104 112 127 133 125 124 118 118 117 114 110 109 106 99 87 71 55 39 25 16 12 9 6 4 359 356 353 351
174 178 187 168 182 212 210 198 185 187 197 202 188 146 138 118 107 116 129 129 124 121 123 122 118 117 112 103 92 77 58 35 17 14 20 25 23 20 17 7 6 359 355
188 186 177 159 160 170 193 208 219 229 211 182 174 163 165 141 124 129 132 133 129 128 129 127 124 124 118 109 91 67 38 17 13 30 38 29 22 14 8 5 359 351 349
205 197 181 164 173 164 147 201 211 215 186 169 175 170 172 158 143 140 138 141 140 140 139 134 133 130 124 109 78 43 17 10 26 40 30 23 16 2 359 352 348 338 331
205 203 193 174 176 194 190 207 212 220 212 193 186 182 178 175 159 155 150 148 148 146 147 147 148 144 131 94 46 9 3 16 33 29 14 6 1 356 350 341 332 323 319
205 214 201 194 190 186 190 208 220 217 213 194 194 186 188 184 173 167 163 161 159 161 163 165 160 148 144 169 323 337 352 12 23 17 0 354 349 345 346 340 331 320 326
206 215 206 200 201 198 190 191 210 221 227 213 201 197 197 195 184 181 177 175 175 177 181 180 182 184 198 242 293 317 354 2 7 0 348 342 341 343 338 332 330 330 334
214 209 207 206 205 208 210 207 209 214 219 213 205 199 200 202 198 194 193 190 192 196 200 204 196 207 236 274 290 319 351 358 350 346 334 337 345 342 336 333 329 331 344
219 216 211 214 215 211 216 217 215 216 211 218 212 210 212 210 206 202 200 204 206 215 208 216 220 227 256 279 308 336 336 343 338 333 332 340 343 340 342 342 340 344 352
223 222 223 221 222 216 219 219 219 219 220 216 223 217 213 208 200 200 204 210 215 214 217 223 232 250 270 292 308 315 319 329 324 324 332 338 338 337 340 342 348 352 351
224 225 225 225 225 221 217 225 226 222 227 228 227 221 214 209 201 203 207 215 222 227 231 236 246 264 278 285 295 304 311 311 315 319 330 332 335 333 330 335 345 344 348
231 230 227 224 222 224 222 223 231 227 225 229 232 228 228 222 218 220 221 225 231 238 243 246 250 255 264 276 289 291 292 296 307 311 326 329 331 329 328 341 334 334 341
235 235 236 232 227 225 224 226 230 233 232 230 230 232 231 234 232 231 233 235 240 244 249 254 257 259 265 279 284 286 292 294 310 314 326 325 332 326 329 334 325 329 338
241 239 237 239 237 232 228 228 230 233 233 233 231 233 235 237 239 240 243 245 249 253 255 259 264 268 273 276 277 281 285 290 306 308 318 327 325 319 322 322 321 325 334
241 243 242 240 241 240 236 233 232 235 236 235 234 234 236 239 242 245 248 249 251 256 261 263 266 269 271 273 271 272 274 284 304 310 315 324 321 321 320 317 319 323 334
245 245 246 246 244 242 242 241 238 238 238 238 238 237 238 238 241 244 248 251 253 255 258 263 266 266 265 262 267 268 272 281 299 308 313 316 317 319 319 321 321 325 332
246 246 248 249 249 246 244 245 245 243 243 241 241 240 241 241 242 246 249 251 254 257 261 262 264 263 259 259 260 264 277 281 292 304 305 309 314 320 318 320 319 323 329
239 244 247 249 250 250 248 246 246 248 247 246 244 243 243 244 243 246 250 253 255 256 258 258 260 260 259 260 261 268 272 279 291 300 302 304 311 318 317 315 315 323 331
Height
3225 3226 3226 3227 3228 3228 3228 3227 3227 3229 3230 3231 3232 3232 3232 3231 3232 3231 3231 3231 3231 3232 3232 3232 3232 3231 3230 3229 3229 3227 3226 3225 3224 3223 3223 3221 3220 3219 3217 3215 3214 3211 3209
3228 3228 3229 3229 3230 3230 3231 3231 3230 3231 3233 3233 3233 3233 3233 3233 3232 3232 3232 3232 3233 3233 3233 3233 3233 3233 3232 3231 3230 3230 3229 3228 3227 3227 3225 3224 3223 3222 3220 3218 3216 3213 3211
3229 3230 3230 3231 3231 3231 3233 3233 3233 3235 3235 3234 3234 3233 3233 3233 3234 3234 3234 3234 3235 3235 3235 3235 3234 3234 3233 3233 3232 3232 3232 3232 3231 3230 3229 3228 3227 3225 3223 3221 3218 3215 3212
3230 3231 3231 3233 3233 3233 3233 3234 3235 3236 3235 3234 3234 3234 3234 3234 3235 3235 3235 3235 3235 3236 3236 3236 3236 3236 3235 3235 3235 3235 3235 3235 3234 3234 3233 3231 3230 3228 3225 3223 3220 3217 3214
3231 3233 3232 3232 3234 3235 3235 3236 3235 3237 3237 3236 3235 3235 3236 3236 3236 3236 3236 3236 3236 3237 3237 3237 3238 3238 3238 3238 3239 3239 3239 3239 3238 3238 3237 3235 3233 3230 3228 3225 3222 3218 3215
3233 3233 3233 3232 3233 3235 3235 3237 3237 3238 3237 3237 3236 3237 3237 3237 3237 3237 3237 3238 3238 3239 3240 3240 3240 3240 3241 3241 3242 3242 3242 3242 3242 3241 3240 3238 3235 3233 3229 3227 3224 3220 3216
3234 3234 3233 3233 3235 3235 3237 3238 3239 3239 3240 3239 3239 3240 3239 3239 3239 3239 3239 3240 3241 3242 3242 3242 3243 3244 3244 3245 3245 3246 3246 3246 3245 3244 3242 3240 3237 3234 3231 3228 3225 3221 3217
3233 3234 3234 3234 3235 3235 3236 3238 3239 3241 3241 3241 3242 3242 3242 3242 3241 3242 3241 3242 3243 3244 3244 3245 3245 3246 3247 3249 3249 3250 3249 3249 3247 3246 3244 3241 3238 3235 3232 3229 3225 3221 3217
3234 3235 3235 3236 3236 3236 3237 3239 3240 3242 3243 3243 3243 3244 3245 3244 3244 3244 3244 3244 3245 3245 3247 3247 3248 3249 3250 3252 3253 3253 3252 3251 3249 3247 3244 3241 3238 3235 3232 3228 3224 3220 3216
3234 3236 3236 3237 3237 3237 3237 3239 3240 3242 3243 3244 3244 3244 3246 3246 3246 3246 3246 3247 3248 3248 3249 3250 3251 3253 3254 3255 3255 3255 3254 3252 3250 3247 3244 3241 3238 3235 3232 3228 3224 3220 3216
3234 3236 3237 3237 3238 3238 3238 3239 3240 3241 3242 3243 3245 3245 3247 3247 3247 3248 3248 3249 3249 3250 3252 3254 3255 3256 3256 3257 3257 3256 3254 3253 3250 3248 3245 3242 3239 3235 3232 3229 3224 3220 3216
3234 3236 3237 3237 3238 3239 3239 3239 3240 3241 3242 3243 3244 3246 3247 3248 3248 3249 3250 3250 3251 3253 3254 3256 3257 3258 3259 3258 3258 3257 3255 3253 3251 3248 3245 3242 3239 3235 3230 3228 3223 3219 3215
3234 3236 3237 3237 3238 3239 3239 3239 3241 3242 3243 3243 3245 3246 3247 3248 3249 3250 3251 3253 3254 3255 3256 3257 3258 3259 3259 3259 3258 3257 3255 3253 3250 3248 3245 3242 3239 3234 3229 3225 3221 3217 3212
3233 3235 3236 3237 3239 3239 3240 3240 3241 3242 3243 3244 3245 3246 3247 3248 3249 3251 3252 3254 3256 3256 3258 3258 3259 3259 3259 3259 3258 3257 3254 3252 3250 3247 3244 3241 3237 3233 3227 3223 3218 3214 3211
3231 3233 3234 3236 3238 3239 3239 3240 3241 3242 3242 3244 3245 3246 3247 3249 3250 3252 3253 3254 3256 3257 3258 3258 3259 3259 3259 3259 3257 3256 3254 3251 3248 3246 3243 3240 3236 3231 3225 3220 3216 3213 3209
3228 3230 3231 3234 3237 3238 3238 3239 3240 3242 3242 3243 3244 3245 3247 3248 3249 3251 3253 3254 3255 3257 3258 3258 3258 3258 3258 3257 3255 3254 3252 3249 3247 3245 3242 3238 3232 3227 3222 3217 3213 3211 3208
3226 3228 3229 3232 3234 3236 3237 3238 3239 3240 3242 3242 3243 3245 3246 3247 3249 3250 3252 3254 3255 3256 3256 3257 3257 3257 3256 3255 3253 3251 3249 3248 3246 3243 3240 3235 3230 3225 3220 3215 3212 3210 3208
3223 3225 3228 3230 3232 3234 3235 3237 3238 3239 3240 3242 3243 3244 3245 3245 3247 3249 3251 3252 3253 3254 3255 3255 3255 3254 3254 3252 3251 3250 3248 3246 3244 3240 3236 3231 3227 3223 3218 3214 3212 3210 3207
3219 3221 3224 3226 3229 3231 3233 3235 3237 3238 3239 3240 3241 3242 3243 3245 3246 3247 3249 3250 3251 3252 3252 3253 3253 3252 3251 3250 3249 3247 3246 3245 3241 3237 3234 3229 3225 3220 3216 3212 3211 3208 3204
3215 3217 3219 3222 3224 3227 3230 3232 3234 3235 3237 3238 3239 3240 3241 3243 3244 3245 3246 3247 3248 3249 3249 3249 3250 3250 3249 3248 3245 3244 3244 3241 3240 3236 3232 3227 3223 3218 3214 3212 3209 3206 3203
3208 3212 3214 3216 3219 3221 3223 3227 3231 3233 3234 3235 3236 3237 3239 3240 3241 3242 3243 3245 3245 3245 3245 3245 3246 3246 3246 3245 3242 3241 3239 3238 3237 3232 3230 3225 3220 3215 3211 3209 3207 3204 3200
3202 3204 3207 3210 3212 3215 3218 3221 3224 3227 3229 3230 3232 3233 3235 3236 3238 3239 3239 3240 3241 3241 3241 3241 3241 3241 3242 3241 3239 3237 3236 3234 3233 3230 3226 3222 3218 3213 3210 3207 3204 3201 3197
3195 3197 3199 3202 3205 3208 3212 3216 3218 3220 3222 3224 3226 3227 3229 3231 3232 3234 3234 3235 3235 3236 3236 3236 3236 3237 3236 3236 3234 3234 3232 3230 3228 3225 3221 3219 3215 3210 3207 3203 3201 3198 3194
3186 3190 3192 3194 3197 3201 3205 3208 3212 3213 3215 3217 3219 3221 3223 3225 3226 3227 3228 3228 3229 3230 3231 3230 3230 3231 3230 3231 3229 3228 3227 3225 3225 3221 3216 3213 3210 3207 3203 3200 3197 3194 3191
3178 3180 3184 3187 3189 3193 3197 3201 3204 3205 3207 3210 3212 3214 3216 3218 3220 3222 3221 3222 3223 3224 3225 3225 3225 3225 3225 3225 3224 3223 3222 3220 3219 3217 3214 3209 3207 3204 3200 3197 3193 3191 3188
3170 3173 3175 3178 3182 3185 3189 3192 3195 3196 3198 3201 3204 3206 3209 3211 3214 3215 3214 3215 3216 3219 3219 3219 3217 3217 3218 3219 3219 3217 3217 3215 3213 3211 3209 3206 3203 3200 3197 3194 3191 3188 3184